GEFSNGP_prec_meanprecacc_036.txt.gz
Total_Precipitation_Accumulation
0.23 0.22 0.31 0.35 0.30 0.29 0.35 0.37 0.43 0.37 0.31 0.21 0.16 0.13 0.13 0.13 0.12 0.11 0.10 0.09 0.08 0.09 0.10 0.12 0.13 0.13 0.13 0.14 0.21 0.26 0.35 0.41 0.36 0.33 0.28 0.23 0.16 0.11 0.10 0.10 0.09 0.13 0.18 0.28
0.15 0.15 0.22 0.28 0.27 0.27 0.27 0.29 0.34 0.35 0.28 0.13 0.09 0.09 0.10 0.12 0.13 0.14 0.13 0.10 0.10 0.11 0.11 0.11 0.13 0.14 0.15 0.20 0.29 0.34 0.36 0.44 0.55 0.53 0.41 0.31 0.23 0.18 0.17 0.17 0.16 0.16 0.19 0.28
0.24 0.20 0.22 0.45 0.46 0.44 0.44 0.36 0.31 0.22 0.12 0.06 0.07 0.08 0.09 0.12 0.15 0.16 0.14 0.12 0.12 0.12 0.13 0.14 0.16 0.19 0.21 0.26 0.35 0.35 0.37 0.45 0.61 0.58 0.43 0.37 0.36 0.32 0.28 0.29 0.29 0.24 0.22 0.22
0.26 0.29 0.56 0.80 0.59 0.55 0.48 0.26 0.12 0.05 0.04 0.05 0.09 0.09 0.08 0.09 0.12 0.15 0.14 0.12 0.11 0.10 0.11 0.12 0.15 0.18 0.21 0.25 0.28 0.30 0.33 0.38 0.49 0.48 0.44 0.45 0.44 0.39 0.33 0.31 0.31 0.29 0.27 0.26
0.29 0.33 0.59 0.64 0.41 0.33 0.31 0.18 0.04 0.04 0.05 0.07 0.09 0.06 0.03 0.05 0.07 0.09 0.08 0.06 0.05 0.05 0.05 0.05 0.05 0.06 0.09 0.12 0.15 0.19 0.24 0.30 0.37 0.39 0.41 0.42 0.41 0.42 0.39 0.35 0.34 0.32 0.31 0.35
0.44 0.54 0.57 0.31 0.16 0.15 0.21 0.24 0.05 0.02 0.02 0.03 0.04 0.04 0.02 0.02 0.04 0.04 0.03 0.02 0.01 0.01 0.01 0.00 0.00 0.01 0.03 0.05 0.08 0.12 0.17 0.23 0.29 0.31 0.35 0.38 0.42 0.44 0.43 0.40 0.36 0.34 0.33 0.32
0.46 0.65 0.54 0.21 0.11 0.11 0.20 0.25 0.08 0.02 0.01 0.01 0.02 0.02 0.01 0.02 0.03 0.02 0.01 0.01 0.00 0.00 0.00 0.00 0.00 0.00 0.02 0.05 0.07 0.07 0.09 0.14 0.20 0.27 0.35 0.43 0.48 0.48 0.49 0.46 0.40 0.38 0.42 0.38
0.38 0.54 0.49 0.20 0.15 0.18 0.17 0.08 0.03 0.02 0.01 0.00 0.01 0.00 0.00 0.01 0.01 0.01 0.01 0.00 0.00 0.00 0.00 0.00 0.00 0.00 0.00 0.02 0.03 0.03 0.05 0.10 0.16 0.25 0.32 0.40 0.48 0.50 0.49 0.49 0.48 0.47 0.47 0.48
0.43 0.57 0.38 0.23 0.20 0.19 0.12 0.06 0.02 0.01 0.00 0.00 0.00 0.00 0.00 0.00 0.01 0.01 0.01 0.00 0.00 0.00 0.00 0.00 0.00 0.00 0.00 0.00 0.00 0.00 0.02 0.05 0.10 0.14 0.19 0.23 0.29 0.37 0.44 0.48 0.48 0.47 0.49 0.56
0.32 0.32 0.20 0.18 0.16 0.12 0.07 0.04 0.02 0.01 0.00 0.00 0.00 0.00 0.00 0.00 0.01 0.01 0.01 0.00 0.00 0.00 0.00 0.00 0.00 0.00 0.00 0.00 0.00 0.00 0.01 0.02 0.04 0.05 0.06 0.09 0.18 0.26 0.33 0.40 0.44 0.50 0.54 0.62
0.25 0.25 0.15 0.10 0.10 0.07 0.04 0.02 0.01 0.01 0.00 0.00 0.00 0.00 0.00 0.00 0.00 0.00 0.01 0.00 0.00 0.00 0.00 0.00 0.00 0.00 0.00 0.00 0.00 0.01 0.01 0.01 0.02 0.03 0.04 0.07 0.13 0.22 0.26 0.34 0.35 0.38 0.47 0.58
0.24 0.23 0.17 0.08 0.07 0.05 0.03 0.02 0.01 0.01 0.00 0.00 0.00 0.00 0.00 0.00 0.00 0.00 0.01 0.01 0.01 0.00 0.01 0.00 0.00 0.00 0.01 0.03 0.01 0.04 0.06 0.03 0.02 0.02 0.05 0.07 0.09 0.11 0.12 0.15 0.15 0.18 0.22 0.26
0.12 0.13 0.11 0.06 0.05 0.03 0.02 0.02 0.01 0.00 0.00 0.00 0.00 0.00 0.00 0.00 0.00 0.00 0.00 0.00 0.01 0.01 0.01 0.01 0.00 0.00 0.01 0.02 0.05 0.12 0.14 0.11 0.06 0.05 0.04 0.05 0.05 0.06 0.06 0.05 0.04 0.06 0.07 0.12
0.06 0.07 0.08 0.06 0.03 0.02 0.01 0.01 0.01 0.00 0.00 0.00 0.00 0.00 0.00 0.00 0.00 0.00 0.00 0.00 0.01 0.01 0.01 0.01 0.00 0.00 0.00 0.00 0.02 0.03 0.03 0.03 0.04 0.07 0.05 0.04 0.06 0.12 0.16 0.15 0.10 0.05 0.03 0.04
0.04 0.05 0.06 0.05 0.02 0.01 0.01 0.00 0.00 0.00 0.00 0.00 0.00 0.00 0.00 0.00 0.00 0.00 0.00 0.00 0.00 0.01 0.01 0.01 0.00 0.00 0.00 0.00 0.00 0.00 0.00 0.02 0.08 0.10 0.05 0.04 0.10 0.17 0.19 0.16 0.14 0.07 0.02 0.01
0.02 0.02 0.03 0.03 0.02 0.01 0.00 0.00 0.00 0.00 0.00 0.00 0.00 0.00 0.00 0.00 0.00 0.00 0.00 0.00 0.00 0.01 0.01 0.01 0.00 0.00 0.00 0.00 0.00 0.01 0.02 0.02 0.08 0.14 0.08 0.08 0.10 0.10 0.10 0.10 0.07 0.04 0.03 0.02
0.01 0.01 0.01 0.02 0.01 0.00 0.00 0.00 0.00 0.00 0.00 0.00 0.00 0.00 0.00 0.00 0.00 0.00 0.00 0.00 0.00 0.00 0.01 0.01 0.00 0.00 0.00 0.00 0.01 0.03 0.06 0.03 0.02 0.14 0.17 0.14 0.12 0.10 0.11 0.12 0.08 0.04 0.03 0.01
0.00 0.00 0.01 0.01 0.01 0.00 0.00 0.00 0.00 0.00 0.00 0.00 0.00 0.00 0.00 0.00 0.00 0.00 0.00 0.00 0.00 0.00 0.00 0.01 0.00 0.00 0.00 0.00 0.00 0.01 0.02 0.03 0.04 0.13 0.18 0.14 0.11 0.11 0.11 0.10 0.07 0.04 0.03 0.01
0.00 0.00 0.00 0.01 0.01 0.00 0.00 0.00 0.00 0.00 0.00 0.00 0.00 0.00 0.00 0.00 0.00 0.00 0.00 0.00 0.00 0.00 0.00 0.00 0.00 0.00 0.00 0.00 0.00 0.01 0.01 0.02 0.03 0.07 0.08 0.04 0.05 0.08 0.09 0.08 0.06 0.03 0.02 0.01
0.00 0.00 0.00 0.00 0.00 0.00 0.00 0.00 0.00 0.00 0.00 0.00 0.00 0.00 0.00 0.00 0.00 0.00 0.00 0.00 0.00 0.00 0.00 0.00 0.00 0.00 0.00 0.00 0.00 0.01 0.01 0.01 0.02 0.04 0.04 0.05 0.07 0.08 0.07 0.06 0.06 0.03 0.02 0.02
0.00 0.00 0.00 0.00 0.00 0.00 0.00 0.00 0.00 0.00 0.00 0.00 0.00 0.00 0.00 0.00 0.00 0.00 0.00 0.00 0.00 0.00 0.00 0.00 0.00 0.00 0.00 0.00 0.00 0.01 0.02 0.01 0.02 0.03 0.04 0.05 0.05 0.06 0.07 0.06 0.07 0.06 0.05 0.03
0.00 0.00 0.00 0.00 0.00 0.00 0.00 0.00 0.00 0.00 0.00 0.00 0.00 0.00 0.00 0.00 0.00 0.00 0.00 0.00 0.00 0.00 0.00 0.00 0.00 0.00 0.00 0.00 0.01 0.01 0.02 0.01 0.02 0.04 0.05 0.05 0.06 0.06 0.06 0.06 0.06 0.06 0.06 0.05
0.00 0.00 0.00 0.00 0.00 0.00 0.00 0.00 0.00 0.00 0.00 0.00 0.00 0.00 0.00 0.00 0.00 0.00 0.00 0.00 0.00 0.00 0.00 0.00 0.00 0.00 0.00 0.00 0.01 0.01 0.01 0.01 0.02 0.03 0.03 0.04 0.05 0.06 0.06 0.04 0.04 0.04 0.06 0.08
0.00 0.00 0.00 0.00 0.00 0.00 0.00 0.00 0.00 0.00 0.00 0.00 0.00 0.00 0.00 0.00 0.00 0.00 0.00 0.00 0.00 0.00 0.00 0.00 0.00 0.00 0.00 0.00 0.00 0.00 0.00 0.00 0.01 0.01 0.01 0.01 0.02 0.03 0.03 0.04 0.04 0.04 0.04 0.05
0.00 0.00 0.00 0.00 0.00 0.00 0.00 0.00 0.00 0.00 0.00 0.00 0.00 0.00 0.00 0.00 0.00 0.00 0.00 0.00 0.00 0.00 0.00 0.00 0.00 0.00 0.00 0.00 0.00 0.00 0.00 0.00 0.00 0.01 0.01 0.01 0.01 0.01 0.01 0.02 0.02 0.03 0.03 0.03
0.00 0.00 0.00 0.00 0.00 0.00 0.00 0.00 0.00 0.00 0.00 0.00 0.00 0.00 0.00 0.00 0.00 0.00 0.00 0.00 0.00 0.00 0.00 0.00 0.00 0.00 0.00 0.00 0.00 0.00 0.00 0.00 0.00 0.00 0.01 0.01 0.01 0.01 0.01 0.01 0.01 0.01 0.01 0.01
0.01 0.00 0.00 0.00 0.00 0.00 0.00 0.00 0.00 0.00 0.00 0.00 0.00 0.00 0.00 0.00 0.00 0.00 0.00 0.00 0.00 0.00 0.00 0.00 0.00 0.00 0.00 0.00 0.00 0.00 0.00 0.00 0.00 0.00 0.00 0.00 0.01 0.01 0.00 0.00 0.00 0.01 0.01 0.01

GEFSNGP_prec_meanprecacc_042.txt.gz
Total_Precipitation_Accumulation
0.24 0.26 0.37 0.41 0.35 0.35 0.41 0.44 0.52 0.48 0.45 0.33 0.27 0.26 0.30 0.27 0.21 0.18 0.18 0.17 0.16 0.16 0.19 0.19 0.19 0.18 0.16 0.17 0.25 0.33 0.45 0.54 0.53 0.51 0.46 0.40 0.31 0.23 0.20 0.17 0.16 0.20 0.23 0.32
0.16 0.17 0.25 0.31 0.32 0.33 0.32 0.35 0.42 0.47 0.44 0.29 0.22 0.21 0.23 0.24 0.22 0.21 0.20 0.16 0.16 0.17 0.18 0.18 0.18 0.18 0.19 0.23 0.32 0.39 0.44 0.53 0.66 0.67 0.55 0.46 0.37 0.30 0.27 0.26 0.23 0.23 0.25 0.33
0.24 0.21 0.23 0.47 0.50 0.50 0.51 0.44 0.41 0.34 0.24 0.14 0.12 0.14 0.16 0.17 0.19 0.22 0.20 0.17 0.16 0.16 0.17 0.18 0.20 0.22 0.24 0.29 0.37 0.38 0.41 0.51 0.69 0.68 0.55 0.47 0.47 0.45 0.39 0.37 0.35 0.30 0.27 0.26
0.26 0.29 0.57 0.81 0.60 0.57 0.52 0.30 0.16 0.09 0.08 0.08 0.12 0.12 0.11 0.12 0.15 0.18 0.17 0.14 0.12 0.11 0.12 0.13 0.16 0.20 0.23 0.26 0.29 0.31 0.35 0.42 0.53 0.54 0.50 0.51 0.51 0.48 0.42 0.37 0.36 0.33 0.31 0.29
0.29 0.33 0.59 0.64 0.41 0.33 0.32 0.19 0.05 0.04 0.05 0.08 0.10 0.08 0.05 0.06 0.09 0.10 0.09 0.07 0.06 0.05 0.05 0.05 0.05 0.07 0.10 0.12 0.15 0.19 0.25 0.31 0.39 0.41 0.44 0.45 0.44 0.45 0.42 0.37 0.37 0.35 0.34 0.38
0.44 0.54 0.57 0.31 0.16 0.15 0.21 0.24 0.05 0.03 0.03 0.03 0.04 0.04 0.03 0.03 0.04 0.04 0.04 0.03 0.02 0.01 0.01 0.01 0.01 0.01 0.03 0.05 0.08 0.12 0.17 0.23 0.29 0.32 0.36 0.39 0.43 0.45 0.44 0.41 0.37 0.35 0.34 0.35
0.46 0.65 0.54 0.21 0.11 0.11 0.20 0.26 0.08 0.03 0.02 0.01 0.02 0.02 0.02 0.02 0.03 0.03 0.02 0.01 0.01 0.00 0.00 0.00 0.00 0.00 0.02 0.05 0.07 0.07 0.09 0.14 0.20 0.27 0.35 0.43 0.48 0.48 0.49 0.46 0.41 0.38 0.43 0.40
0.38 0.54 0.49 0.20 0.15 0.18 0.17 0.08 0.03 0.02 0.01 0.00 0.01 0.00 0.00 0.01 0.01 0.02 0.01 0.01 0.00 0.00 0.00 0.00 0.00 0.00 0.00 0.02 0.03 0.03 0.05 0.10 0.16 0.25 0.32 0.40 0.48 0.50 0.50 0.49 0.48 0.48 0.47 0.49
0.43 0.57 0.38 0.23 0.20 0.19 0.12 0.06 0.02 0.01 0.00 0.00 0.00 0.00 0.00 0.01 0.01 0.01 0.01 0.00 0.00 0.00 0.00 0.00 0.00 0.00 0.00 0.00 0.00 0.00 0.02 0.05 0.10 0.14 0.19 0.23 0.29 0.37 0.44 0.48 0.48 0.48 0.50 0.57
0.32 0.32 0.20 0.18 0.16 0.12 0.07 0.04 0.02 0.01 0.00 0.00 0.00 0.00 0.00 0.00 0.01 0.01 0.01 0.00 0.00 0.00 0.00 0.00 0.00 0.00 0.00 0.00 0.00 0.00 0.01 0.02 0.04 0.05 0.06 0.09 0.18 0.26 0.33 0.40 0.44 0.50 0.55 0.62
0.25 0.25 0.15 0.10 0.10 0.07 0.04 0.02 0.01 0.01 0.00 0.00 0.00 0.00 0.00 0.00 0.00 0.00 0.01 0.01 0.00 0.00 0.00 0.00 0.00 0.00 0.00 0.00 0.00 0.01 0.01 0.01 0.02 0.03 0.04 0.07 0.13 0.22 0.26 0.34 0.35 0.38 0.47 0.58
0.24 0.23 0.17 0.08 0.07 0.05 0.03 0.02 0.01 0.01 0.00 0.00 0.00 0.00 0.00 0.00 0.00 0.00 0.01 0.01 0.01 0.01 0.01 0.00 0.00 0.00 0.01 0.03 0.01 0.04 0.06 0.03 0.02 0.02 0.05 0.07 0.09 0.11 0.12 0.15 0.15 0.18 0.23 0.27
0.12 0.13 0.11 0.06 0.05 0.03 0.02 0.02 0.01 0.00 0.00 0.00 0.00 0.00 0.00 0.00 0.00 0.00 0.00 0.00 0.01 0.01 0.01 0.01 0.00 0.00 0.01 0.02 0.05 0.12 0.14 0.11 0.06 0.05 0.04 0.05 0.05 0.06 0.06 0.05 0.04 0.06 0.07 0.12
0.06 0.07 0.08 0.06 0.03 0.02 0.01 0.01 0.01 0.00 0.00 0.00 0.00 0.00 0.00 0.00 0.00 0.00 0.00 0.00 0.01 0.01 0.01 0.01 0.00 0.00 0.00 0.00 0.02 0.03 0.03 0.03 0.04 0.07 0.05 0.04 0.06 0.12 0.16 0.15 0.10 0.05 0.03 0.05
0.04 0.05 0.06 0.05 0.02 0.01 0.01 0.00 0.00 0.00 0.00 0.00 0.00 0.00 0.00 0.00 0.00 0.00 0.00 0.00 0.00 0.01 0.01 0.01 0.00 0.00 0.00 0.00 0.00 0.00 0.01 0.02 0.08 0.10 0.06 0.05 0.10 0.17 0.19 0.16 0.14 0.07 0.02 0.01
0.02 0.02 0.03 0.03 0.02 0.01 0.00 0.00 0.00 0.00 0.00 0.00 0.00 0.00 0.00 0.00 0.00 0.00 0.00 0.00 0.00 0.01 0.01 0.01 0.00 0.00 0.00 0.00 0.00 0.01 0.02 0.02 0.08 0.14 0.08 0.08 0.10 0.10 0.10 0.10 0.08 0.04 0.03 0.02
0.01 0.01 0.01 0.02 0.01 0.00 0.00 0.00 0.00 0.00 0.00 0.00 0.00 0.00 0.00 0.00 0.00 0.00 0.00 0.00 0.00 0.00 0.01 0.01 0.00 0.00 0.00 0.00 0.01 0.03 0.06 0.03 0.02 0.14 0.17 0.14 0.12 0.10 0.11 0.12 0.08 0.04 0.03 0.01
0.00 0.00 0.01 0.01 0.01 0.00 0.00 0.00 0.00 0.00 0.00 0.00 0.00 0.00 0.00 0.00 0.00 0.00 0.00 0.00 0.00 0.00 0.00 0.01 0.00 0.00 0.00 0.00 0.01 0.01 0.02 0.03 0.04 0.13 0.18 0.14 0.11 0.11 0.11 0.10 0.07 0.04 0.03 0.01
0.00 0.00 0.00 0.01 0.01 0.00 0.00 0.00 0.00 0.00 0.00 0.00 0.00 0.00 0.00 0.00 0.00 0.00 0.00 0.00 0.00 0.00 0.00 0.00 0.00 0.00 0.00 0.00 0.00 0.01 0.01 0.02 0.03 0.07 0.08 0.04 0.05 0.08 0.09 0.08 0.06 0.03 0.02 0.02
0.00 0.00 0.00 0.00 0.00 0.00 0.00 0.00 0.00 0.00 0.00 0.00 0.00 0.00 0.00 0.00 0.00 0.00 0.00 0.00 0.00 0.00 0.00 0.00 0.00 0.00 0.00 0.00 0.00 0.01 0.01 0.01 0.02 0.04 0.04 0.05 0.07 0.08 0.07 0.06 0.06 0.04 0.02 0.02
0.00 0.00 0.00 0.00 0.00 0.00 0.00 0.00 0.00 0.00 0.00 0.00 0.00 0.00 0.00 0.00 0.00 0.00 0.00 0.00 0.00 0.00 0.00 0.00 0.00 0.00 0.00 0.00 0.00 0.01 0.02 0.01 0.02 0.03 0.04 0.05 0.05 0.06 0.07 0.06 0.07 0.06 0.05 0.03
0.00 0.00 0.00 0.00 0.00 0.00 0.00 0.00 0.00 0.00 0.00 0.00 0.00 0.00 0.00 0.00 0.00 0.00 0.00 0.00 0.00 0.00 0.00 0.00 0.00 0.00 0.00 0.00 0.01 0.01 0.02 0.01 0.02 0.04 0.05 0.05 0.06 0.06 0.06 0.06 0.06 0.06 0.06 0.05
0.00 0.00 0.00 0.00 0.00 0.00 0.00 0.00 0.00 0.00 0.00 0.00 0.00 0.00 0.00 0.00 0.00 0.00 0.00 0.00 0.00 0.00 0.00 0.00 0.00 0.00 0.00 0.00 0.01 0.01 0.01 0.01 0.02 0.03 0.03 0.04 0.05 0.06 0.06 0.04 0.04 0.04 0.06 0.08
0.00 0.00 0.00 0.00 0.00 0.00 0.00 0.00 0.00 0.00 0.00 0.00 0.00 0.00 0.00 0.00 0.00 0.00 0.00 0.00 0.00 0.00 0.00 0.00 0.00 0.00 0.00 0.00 0.00 0.00 0.00 0.00 0.01 0.01 0.01 0.01 0.02 0.03 0.03 0.04 0.04 0.04 0.04 0.05
0.00 0.00 0.00 0.00 0.00 0.00 0.00 0.00 0.00 0.00 0.00 0.00 0.00 0.00 0.00 0.00 0.00 0.00 0.00 0.00 0.00 0.00 0.00 0.00 0.00 0.00 0.00 0.00 0.00 0.00 0.00 0.00 0.00 0.01 0.01 0.01 0.01 0.01 0.01 0.02 0.02 0.03 0.03 0.03
0.00 0.00 0.00 0.00 0.00 0.00 0.00 0.00 0.00 0.00 0.00 0.00 0.00 0.00 0.00 0.00 0.00 0.00 0.00 0.00 0.00 0.00 0.00 0.00 0.00 0.00 0.00 0.00 0.00 0.00 0.00 0.00 0.00 0.00 0.01 0.01 0.01 0.01 0.01 0.01 0.01 0.01 0.01 0.01
0.01 0.00 0.00 0.00 0.00 0.00 0.00 0.00 0.00 0.00 0.00 0.00 0.00 0.00 0.00 0.00 0.00 0.00 0.00 0.00 0.00 0.00 0.00 0.00 0.00 0.00 0.00 0.00 0.00 0.00 0.00 0.00 0.00 0.00 0.00 0.00 0.01 0.01 0.00 0.00 0.00 0.01 0.01 0.01

GEFSNGP_prec_meanprecacc_048.txt.gz
Total_Precipitation_Accumulation
0.25 0.26 0.38 0.44 0.37 0.37 0.44 0.49 0.61 0.58 0.57 0.46 0.42 0.45 0.49 0.45 0.39 0.35 0.32 0.28 0.26 0.26 0.29 0.29 0.30 0.31 0.27 0.24 0.31 0.39 0.52 0.61 0.59 0.56 0.51 0.45 0.35 0.26 0.23 0.19 0.17 0.21 0.26 0.36
0.16 0.17 0.25 0.32 0.33 0.34 0.34 0.38 0.47 0.53 0.51 0.40 0.35 0.34 0.34 0.32 0.27 0.25 0.25 0.22 0.20 0.21 0.22 0.21 0.21 0.21 0.22 0.26 0.35 0.41 0.47 0.56 0.69 0.70 0.58 0.48 0.39 0.33 0.30 0.28 0.25 0.25 0.28 0.37
0.24 0.21 0.23 0.48 0.50 0.51 0.52 0.45 0.43 0.37 0.28 0.19 0.19 0.20 0.23 0.23 0.23 0.27 0.23 0.18 0.17 0.17 0.19 0.20 0.21 0.24 0.26 0.31 0.39 0.39 0.42 0.52 0.71 0.71 0.57 0.49 0.50 0.47 0.42 0.39 0.38 0.33 0.31 0.30
0.26 0.29 0.57 0.82 0.61 0.58 0.52 0.31 0.17 0.11 0.10 0.10 0.16 0.15 0.13 0.13 0.16 0.20 0.17 0.14 0.13 0.12 0.12 0.13 0.16 0.20 0.23 0.27 0.30 0.32 0.36 0.42 0.54 0.55 0.52 0.53 0.52 0.49 0.43 0.39 0.38 0.36 0.35 0.34
0.29 0.33 0.59 0.64 0.41 0.33 0.32 0.20 0.06 0.05 0.06 0.09 0.12 0.09 0.05 0.06 0.09 0.10 0.09 0.07 0.06 0.05 0.05 0.05 0.05 0.07 0.10 0.12 0.15 0.19 0.25 0.32 0.39 0.41 0.45 0.46 0.45 0.45 0.42 0.38 0.38 0.36 0.37 0.41
0.44 0.54 0.57 0.31 0.16 0.15 0.22 0.25 0.06 0.03 0.03 0.04 0.04 0.05 0.03 0.03 0.04 0.05 0.04 0.03 0.02 0.01 0.01 0.01 0.01 0.01 0.03 0.05 0.08 0.12 0.17 0.23 0.29 0.32 0.36 0.39 0.44 0.46 0.45 0.41 0.38 0.36 0.35 0.36
0.46 0.65 0.54 0.21 0.11 0.11 0.21 0.26 0.08 0.03 0.02 0.02 0.02 0.02 0.02 0.02 0.03 0.03 0.02 0.01 0.01 0.00 0.00 0.00 0.00 0.00 0.02 0.05 0.07 0.07 0.09 0.14 0.20 0.27 0.35 0.43 0.48 0.48 0.49 0.46 0.41 0.39 0.43 0.40
0.38 0.54 0.49 0.20 0.15 0.18 0.17 0.08 0.03 0.02 0.01 0.01 0.01 0.00 0.00 0.01 0.02 0.02 0.01 0.01 0.01 0.00 0.00 0.00 0.00 0.00 0.00 0.02 0.03 0.03 0.05 0.10 0.16 0.25 0.32 0.40 0.48 0.50 0.50 0.50 0.48 0.48 0.48 0.50
0.43 0.57 0.38 0.23 0.20 0.19 0.12 0.06 0.02 0.01 0.01 0.00 0.00 0.00 0.00 0.01 0.01 0.01 0.01 0.00 0.00 0.00 0.00 0.00 0.00 0.00 0.00 0.00 0.00 0.00 0.02 0.05 0.10 0.14 0.19 0.23 0.29 0.37 0.44 0.48 0.48 0.48 0.50 0.58
0.32 0.32 0.20 0.18 0.16 0.12 0.07 0.04 0.02 0.01 0.00 0.00 0.00 0.00 0.00 0.00 0.01 0.01 0.01 0.01 0.00 0.00 0.00 0.00 0.00 0.00 0.00 0.00 0.00 0.00 0.01 0.02 0.04 0.05 0.06 0.09 0.18 0.26 0.33 0.40 0.44 0.50 0.55 0.63
0.25 0.25 0.15 0.10 0.10 0.07 0.04 0.02 0.01 0.01 0.00 0.00 0.00 0.00 0.00 0.00 0.00 0.01 0.01 0.01 0.00 0.00 0.00 0.00 0.00 0.00 0.00 0.00 0.00 0.01 0.01 0.01 0.02 0.03 0.04 0.07 0.13 0.22 0.26 0.34 0.36 0.39 0.48 0.59
0.24 0.23 0.17 0.08 0.07 0.05 0.03 0.02 0.01 0.01 0.00 0.00 0.00 0.00 0.00 0.00 0.00 0.00 0.01 0.01 0.01 0.01 0.01 0.00 0.00 0.00 0.01 0.03 0.02 0.04 0.06 0.03 0.02 0.02 0.05 0.07 0.09 0.11 0.12 0.15 0.16 0.18 0.23 0.28
0.12 0.13 0.11 0.06 0.05 0.03 0.02 0.02 0.01 0.00 0.00 0.00 0.00 0.00 0.00 0.00 0.00 0.00 0.00 0.00 0.01 0.01 0.01 0.01 0.00 0.00 0.01 0.02 0.05 0.12 0.14 0.11 0.06 0.05 0.04 0.05 0.05 0.06 0.07 0.05 0.04 0.06 0.08 0.13
0.06 0.07 0.08 0.06 0.03 0.02 0.01 0.01 0.01 0.00 0.00 0.00 0.00 0.00 0.00 0.00 0.00 0.00 0.00 0.00 0.01 0.01 0.01 0.01 0.00 0.00 0.00 0.00 0.02 0.03 0.03 0.03 0.04 0.07 0.05 0.04 0.06 0.12 0.16 0.15 0.10 0.06 0.03 0.05
0.04 0.05 0.06 0.05 0.02 0.01 0.01 0.00 0.00 0.00 0.00 0.00 0.00 0.00 0.00 0.00 0.00 0.00 0.00 0.00 0.00 0.01 0.01 0.01 0.00 0.00 0.00 0.00 0.00 0.00 0.01 0.03 0.08 0.10 0.06 0.05 0.10 0.17 0.19 0.17 0.14 0.08 0.03 0.01
0.02 0.02 0.03 0.03 0.02 0.01 0.00 0.00 0.00 0.00 0.00 0.00 0.00 0.00 0.00 0.00 0.00 0.00 0.00 0.00 0.00 0.01 0.01 0.01 0.00 0.00 0.00 0.00 0.01 0.01 0.02 0.02 0.08 0.14 0.08 0.08 0.10 0.10 0.10 0.11 0.08 0.04 0.03 0.03
0.01 0.01 0.01 0.02 0.01 0.00 0.00 0.00 0.00 0.00 0.00 0.00 0.00 0.00 0.00 0.00 0.00 0.00 0.00 0.00 0.00 0.01 0.01 0.01 0.00 0.00 0.00 0.01 0.01 0.03 0.06 0.03 0.02 0.14 0.17 0.14 0.12 0.10 0.11 0.12 0.08 0.05 0.03 0.01
0.00 0.00 0.01 0.01 0.01 0.00 0.00 0.00 0.00 0.00 0.00 0.00 0.00 0.00 0.00 0.00 0.00 0.00 0.00 0.00 0.00 0.00 0.01 0.01 0.00 0.00 0.00 0.01 0.01 0.01 0.02 0.03 0.04 0.13 0.18 0.14 0.11 0.11 0.11 0.10 0.07 0.04 0.03 0.01
0.00 0.00 0.00 0.01 0.01 0.00 0.00 0.00 0.00 0.00 0.00 0.00 0.00 0.00 0.00 0.00 0.00 0.00 0.00 0.00 0.00 0.00 0.00 0.00 0.00 0.00 0.00 0.00 0.01 0.01 0.01 0.02 0.03 0.07 0.08 0.04 0.05 0.08 0.09 0.08 0.06 0.03 0.02 0.02
0.00 0.00 0.00 0.00 0.00 0.00 0.00 0.00 0.00 0.00 0.00 0.00 0.00 0.00 0.00 0.00 0.00 0.00 0.00 0.00 0.00 0.00 0.00 0.00 0.00 0.00 0.00 0.00 0.00 0.01 0.01 0.01 0.02 0.04 0.04 0.05 0.07 0.08 0.07 0.06 0.06 0.04 0.03 0.03
0.00 0.00 0.00 0.00 0.00 0.00 0.00 0.00 0.00 0.00 0.00 0.00 0.00 0.00 0.00 0.00 0.00 0.00 0.00 0.00 0.00 0.00 0.00 0.00 0.00 0.00 0.00 0.00 0.00 0.01 0.02 0.01 0.02 0.03 0.04 0.05 0.05 0.06 0.07 0.06 0.07 0.06 0.05 0.04
0.00 0.00 0.00 0.00 0.00 0.00 0.00 0.00 0.00 0.00 0.00 0.00 0.00 0.00 0.00 0.00 0.00 0.00 0.00 0.00 0.00 0.00 0.00 0.00 0.00 0.00 0.00 0.00 0.01 0.01 0.02 0.01 0.02 0.04 0.05 0.05 0.06 0.06 0.06 0.06 0.06 0.06 0.06 0.06
0.00 0.00 0.00 0.00 0.00 0.00 0.00 0.00 0.00 0.00 0.00 0.00 0.00 0.00 0.00 0.00 0.00 0.00 0.00 0.00 0.00 0.00 0.00 0.00 0.00 0.00 0.00 0.00 0.01 0.01 0.01 0.01 0.02 0.03 0.03 0.04 0.05 0.06 0.06 0.04 0.04 0.04 0.06 0.08
0.00 0.00 0.00 0.00 0.00 0.00 0.00 0.00 0.00 0.00 0.00 0.00 0.00 0.00 0.00 0.00 0.00 0.00 0.00 0.00 0.00 0.00 0.00 0.00 0.00 0.00 0.00 0.00 0.00 0.00 0.00 0.00 0.01 0.01 0.01 0.01 0.02 0.03 0.03 0.04 0.04 0.04 0.04 0.05
0.00 0.00 0.00 0.00 0.00 0.00 0.00 0.00 0.00 0.00 0.00 0.00 0.00 0.00 0.00 0.00 0.00 0.00 0.00 0.00 0.00 0.00 0.00 0.00 0.00 0.00 0.00 0.00 0.00 0.00 0.00 0.00 0.00 0.01 0.01 0.01 0.01 0.01 0.01 0.02 0.03 0.03 0.03 0.03
0.00 0.00 0.00 0.00 0.00 0.00 0.00 0.00 0.00 0.00 0.00 0.00 0.00 0.00 0.00 0.00 0.00 0.00 0.00 0.00 0.00 0.00 0.00 0.00 0.00 0.00 0.00 0.00 0.00 0.00 0.00 0.00 0.00 0.00 0.01 0.01 0.01 0.01 0.01 0.01 0.01 0.01 0.01 0.01
0.01 0.00 0.00 0.00 0.00 0.00 0.00 0.00 0.00 0.00 0.00 0.00 0.00 0.00 0.00 0.00 0.00 0.00 0.00 0.00 0.00 0.00 0.00 0.00 0.00 0.00 0.00 0.00 0.00 0.00 0.00 0.00 0.00 0.00 0.00 0.00 0.01 0.01 0.00 0.00 0.00 0.01 0.01 0.01

GEFSNGP_prec_meanprecacc_054.txt.gz
Total_Precipitation_Accumulation
0.25 0.27 0.39 0.44 0.38 0.37 0.44 0.51 0.64 0.62 0.61 0.50 0.47 0.52 0.55 0.51 0.47 0.42 0.37 0.33 0.33 0.33 0.34 0.33 0.35 0.37 0.35 0.32 0.37 0.45 0.59 0.69 0.69 0.67 0.63 0.60 0.50 0.39 0.35 0.29 0.25 0.28 0.32 0.41
0.16 0.18 0.25 0.32 0.34 0.35 0.35 0.39 0.48 0.55 0.54 0.42 0.37 0.36 0.36 0.34 0.29 0.27 0.27 0.24 0.22 0.23 0.24 0.23 0.22 0.23 0.24 0.30 0.38 0.44 0.50 0.59 0.74 0.76 0.65 0.57 0.48 0.41 0.37 0.35 0.31 0.30 0.34 0.44
0.25 0.21 0.23 0.48 0.51 0.51 0.52 0.46 0.44 0.39 0.30 0.20 0.19 0.21 0.24 0.24 0.24 0.28 0.24 0.19 0.17 0.18 0.19 0.20 0.21 0.24 0.27 0.33 0.41 0.40 0.44 0.54 0.74 0.74 0.61 0.53 0.56 0.55 0.48 0.46 0.45 0.41 0.39 0.40
0.27 0.29 0.57 0.82 0.61 0.58 0.52 0.31 0.17 0.12 0.12 0.11 0.16 0.15 0.13 0.13 0.17 0.20 0.18 0.15 0.13 0.12 0.12 0.13 0.16 0.20 0.23 0.27 0.31 0.33 0.37 0.44 0.57 0.58 0.55 0.57 0.57 0.54 0.48 0.44 0.45 0.44 0.43 0.43
0.29 0.33 0.60 0.64 0.41 0.33 0.33 0.21 0.07 0.06 0.07 0.09 0.12 0.09 0.06 0.06 0.09 0.10 0.09 0.07 0.06 0.05 0.05 0.05 0.05 0.07 0.10 0.12 0.15 0.19 0.25 0.32 0.40 0.42 0.45 0.47 0.47 0.48 0.45 0.41 0.41 0.41 0.42 0.48
0.44 0.54 0.58 0.31 0.16 0.15 0.22 0.26 0.06 0.03 0.03 0.04 0.05 0.08 0.04 0.03 0.04 0.05 0.04 0.03 0.02 0.01 0.01 0.01 0.01 0.01 0.03 0.05 0.08 0.12 0.18 0.23 0.30 0.33 0.36 0.39 0.44 0.47 0.47 0.44 0.40 0.38 0.37 0.38
0.46 0.65 0.54 0.21 0.11 0.11 0.21 0.27 0.08 0.03 0.02 0.02 0.02 0.03 0.02 0.02 0.03 0.03 0.02 0.02 0.01 0.00 0.00 0.00 0.00 0.00 0.02 0.05 0.07 0.07 0.09 0.14 0.20 0.28 0.35 0.43 0.48 0.49 0.50 0.48 0.43 0.40 0.44 0.42
0.38 0.54 0.49 0.20 0.15 0.18 0.17 0.08 0.03 0.02 0.01 0.01 0.01 0.01 0.01 0.01 0.02 0.02 0.02 0.01 0.01 0.00 0.00 0.00 0.00 0.00 0.01 0.02 0.03 0.03 0.06 0.10 0.17 0.25 0.32 0.40 0.48 0.50 0.50 0.50 0.49 0.50 0.50 0.51
0.43 0.57 0.38 0.23 0.20 0.19 0.12 0.06 0.02 0.01 0.01 0.00 0.00 0.00 0.00 0.01 0.01 0.02 0.02 0.01 0.00 0.00 0.00 0.00 0.00 0.00 0.00 0.00 0.00 0.00 0.02 0.06 0.10 0.15 0.19 0.23 0.29 0.37 0.44 0.48 0.49 0.49 0.53 0.60
0.32 0.32 0.20 0.18 0.16 0.12 0.07 0.04 0.02 0.01 0.00 0.00 0.00 0.00 0.00 0.00 0.01 0.01 0.02 0.01 0.00 0.00 0.00 0.00 0.00 0.00 0.00 0.00 0.00 0.00 0.01 0.03 0.04 0.06 0.06 0.09 0.18 0.27 0.33 0.40 0.45 0.51 0.57 0.65
0.25 0.25 0.15 0.10 0.10 0.07 0.04 0.02 0.01 0.01 0.00 0.00 0.00 0.00 0.00 0.00 0.00 0.01 0.01 0.01 0.00 0.00 0.00 0.00 0.00 0.00 0.00 0.00 0.00 0.01 0.01 0.01 0.02 0.03 0.05 0.07 0.14 0.22 0.26 0.34 0.36 0.39 0.49 0.61
0.24 0.23 0.17 0.08 0.07 0.05 0.03 0.02 0.01 0.01 0.00 0.00 0.00 0.00 0.00 0.00 0.00 0.01 0.01 0.01 0.01 0.01 0.01 0.00 0.00 0.00 0.01 0.03 0.02 0.04 0.06 0.03 0.02 0.03 0.05 0.08 0.11 0.12 0.12 0.15 0.16 0.19 0.24 0.29
0.12 0.13 0.11 0.06 0.05 0.03 0.02 0.02 0.01 0.00 0.00 0.00 0.00 0.00 0.00 0.00 0.00 0.00 0.00 0.00 0.01 0.01 0.01 0.01 0.00 0.00 0.01 0.02 0.05 0.12 0.14 0.11 0.07 0.05 0.05 0.06 0.07 0.09 0.09 0.06 0.05 0.06 0.08 0.13
0.06 0.07 0.08 0.06 0.03 0.02 0.01 0.01 0.01 0.00 0.00 0.00 0.00 0.00 0.00 0.00 0.00 0.00 0.00 0.00 0.01 0.01 0.01 0.01 0.00 0.00 0.00 0.00 0.02 0.03 0.03 0.03 0.05 0.08 0.05 0.04 0.07 0.13 0.18 0.20 0.14 0.07 0.03 0.05
0.04 0.05 0.06 0.05 0.02 0.01 0.01 0.00 0.00 0.00 0.00 0.00 0.00 0.00 0.00 0.00 0.00 0.00 0.00 0.00 0.00 0.01 0.01 0.01 0.00 0.00 0.00 0.00 0.00 0.00 0.01 0.03 0.09 0.10 0.06 0.05 0.10 0.18 0.20 0.19 0.18 0.11 0.05 0.03
0.02 0.02 0.03 0.03 0.02 0.01 0.00 0.00 0.00 0.00 0.00 0.00 0.00 0.00 0.00 0.00 0.00 0.00 0.00 0.00 0.00 0.01 0.01 0.01 0.00 0.00 0.00 0.00 0.01 0.01 0.02 0.02 0.09 0.14 0.08 0.08 0.10 0.10 0.10 0.12 0.10 0.06 0.05 0.05
0.01 0.01 0.01 0.02 0.01 0.00 0.00 0.00 0.00 0.00 0.00 0.00 0.00 0.00 0.00 0.00 0.00 0.00 0.00 0.00 0.00 0.01 0.01 0.01 0.00 0.00 0.00 0.01 0.01 0.03 0.06 0.03 0.03 0.14 0.17 0.14 0.12 0.10 0.11 0.13 0.09 0.05 0.03 0.01
0.00 0.00 0.01 0.01 0.01 0.00 0.00 0.00 0.00 0.00 0.00 0.00 0.00 0.00 0.00 0.00 0.00 0.00 0.00 0.00 0.00 0.00 0.01 0.01 0.00 0.00 0.00 0.01 0.01 0.01 0.02 0.03 0.04 0.13 0.18 0.14 0.11 0.11 0.12 0.10 0.08 0.05 0.03 0.01
0.00 0.00 0.00 0.01 0.01 0.00 0.00 0.00 0.00 0.00 0.00 0.00 0.00 0.00 0.00 0.00 0.00 0.00 0.00 0.00 0.00 0.00 0.00 0.00 0.00 0.00 0.00 0.00 0.01 0.01 0.01 0.02 0.03 0.07 0.08 0.04 0.05 0.08 0.09 0.09 0.06 0.04 0.03 0.02
0.00 0.00 0.00 0.00 0.00 0.00 0.00 0.00 0.00 0.00 0.00 0.00 0.00 0.00 0.00 0.00 0.00 0.00 0.00 0.00 0.00 0.00 0.00 0.00 0.00 0.00 0.00 0.00 0.00 0.01 0.01 0.01 0.02 0.04 0.04 0.05 0.07 0.08 0.07 0.06 0.06 0.04 0.03 0.03
0.00 0.00 0.00 0.00 0.00 0.00 0.00 0.00 0.00 0.00 0.00 0.00 0.00 0.00 0.00 0.00 0.00 0.00 0.00 0.00 0.00 0.00 0.00 0.00 0.00 0.00 0.00 0.00 0.00 0.01 0.02 0.01 0.02 0.03 0.04 0.05 0.05 0.07 0.07 0.06 0.07 0.06 0.05 0.04
0.00 0.00 0.00 0.00 0.00 0.00 0.00 0.00 0.00 0.00 0.00 0.00 0.00 0.00 0.00 0.00 0.00 0.00 0.00 0.00 0.00 0.00 0.00 0.00 0.00 0.00 0.00 0.00 0.01 0.01 0.02 0.01 0.02 0.04 0.05 0.05 0.06 0.07 0.06 0.06 0.07 0.06 0.06 0.06
0.00 0.00 0.00 0.00 0.00 0.00 0.00 0.00 0.00 0.00 0.00 0.00 0.00 0.00 0.00 0.00 0.00 0.00 0.00 0.00 0.00 0.00 0.00 0.00 0.00 0.00 0.00 0.00 0.01 0.01 0.01 0.01 0.02 0.03 0.03 0.04 0.05 0.06 0.06 0.04 0.04 0.04 0.06 0.09
0.00 0.00 0.00 0.00 0.00 0.00 0.00 0.00 0.00 0.00 0.00 0.00 0.00 0.00 0.00 0.00 0.00 0.00 0.00 0.00 0.00 0.00 0.00 0.00 0.00 0.00 0.00 0.00 0.00 0.00 0.00 0.01 0.01 0.01 0.01 0.01 0.02 0.03 0.03 0.04 0.04 0.04 0.04 0.06
0.00 0.00 0.00 0.00 0.00 0.00 0.00 0.00 0.00 0.00 0.00 0.00 0.00 0.00 0.00 0.00 0.00 0.00 0.00 0.00 0.00 0.00 0.00 0.00 0.00 0.00 0.00 0.00 0.00 0.00 0.00 0.00 0.00 0.01 0.01 0.01 0.01 0.01 0.02 0.02 0.03 0.03 0.03 0.03
0.00 0.00 0.00 0.00 0.00 0.00 0.00 0.00 0.00 0.00 0.00 0.00 0.00 0.00 0.00 0.00 0.00 0.00 0.00 0.00 0.00 0.00 0.00 0.00 0.00 0.00 0.00 0.00 0.00 0.00 0.01 0.00 0.00 0.00 0.01 0.01 0.01 0.01 0.01 0.01 0.01 0.01 0.01 0.01
0.01 0.00 0.00 0.00 0.00 0.00 0.00 0.00 0.00 0.00 0.00 0.00 0.00 0.00 0.00 0.00 0.00 0.00 0.00 0.00 0.00 0.00 0.00 0.00 0.00 0.00 0.00 0.00 0.00 0.00 0.00 0.00 0.00 0.00 0.00 0.00 0.01 0.01 0.00 0.00 0.00 0.01 0.01 0.01

GEFSNGP_prec_meanprecacc_060.txt.gz
Total_Precipitation_Accumulation
0.25 0.27 0.39 0.44 0.38 0.38 0.45 0.51 0.66 0.65 0.64 0.51 0.48 0.52 0.56 0.53 0.48 0.43 0.38 0.34 0.34 0.34 0.36 0.34 0.36 0.38 0.37 0.34 0.39 0.47 0.61 0.73 0.76 0.74 0.71 0.67 0.58 0.49 0.47 0.44 0.42 0.47 0.53 0.63
0.16 0.18 0.25 0.32 0.34 0.35 0.35 0.40 0.50 0.57 0.55 0.43 0.38 0.37 0.37 0.35 0.30 0.28 0.28 0.25 0.23 0.24 0.25 0.24 0.23 0.24 0.25 0.31 0.40 0.46 0.51 0.61 0.76 0.80 0.70 0.63 0.55 0.49 0.47 0.45 0.41 0.42 0.47 0.59
0.25 0.21 0.23 0.48 0.51 0.51 0.52 0.46 0.45 0.40 0.32 0.21 0.20 0.22 0.25 0.25 0.25 0.29 0.25 0.20 0.18 0.18 0.19 0.20 0.22 0.24 0.28 0.34 0.43 0.42 0.46 0.57 0.76 0.76 0.63 0.57 0.61 0.61 0.54 0.51 0.51 0.50 0.49 0.50
0.27 0.29 0.57 0.82 0.61 0.58 0.52 0.31 0.17 0.12 0.12 0.11 0.17 0.16 0.14 0.14 0.17 0.21 0.18 0.15 0.13 0.13 0.12 0.13 0.16 0.20 0.23 0.27 0.31 0.33 0.37 0.45 0.59 0.61 0.57 0.60 0.62 0.58 0.50 0.46 0.46 0.47 0.47 0.48
0.29 0.33 0.60 0.64 0.41 0.33 0.33 0.21 0.07 0.06 0.07 0.10 0.12 0.11 0.08 0.08 0.09 0.10 0.10 0.07 0.06 0.06 0.05 0.05 0.05 0.07 0.10 0.12 0.15 0.19 0.25 0.32 0.40 0.43 0.46 0.49 0.49 0.51 0.47 0.43 0.43 0.42 0.44 0.50
0.44 0.54 0.58 0.31 0.16 0.15 0.22 0.26 0.06 0.03 0.04 0.04 0.06 0.09 0.06 0.04 0.05 0.05 0.05 0.03 0.02 0.01 0.01 0.01 0.01 0.01 0.03 0.05 0.08 0.12 0.18 0.23 0.30 0.33 0.36 0.39 0.45 0.48 0.48 0.44 0.41 0.39 0.38 0.40
0.46 0.65 0.54 0.21 0.11 0.11 0.21 0.27 0.08 0.03 0.02 0.02 0.02 0.04 0.02 0.03 0.03 0.04 0.03 0.02 0.01 0.01 0.00 0.00 0.00 0.01 0.02 0.05 0.07 0.07 0.09 0.14 0.21 0.28 0.35 0.44 0.49 0.49 0.52 0.49 0.43 0.41 0.45 0.42
0.38 0.54 0.49 0.20 0.15 0.18 0.17 0.08 0.03 0.02 0.01 0.01 0.01 0.01 0.01 0.02 0.02 0.03 0.03 0.02 0.01 0.01 0.00 0.00 0.01 0.01 0.01 0.02 0.03 0.04 0.06 0.10 0.17 0.25 0.32 0.41 0.49 0.50 0.51 0.51 0.50 0.50 0.50 0.52
0.43 0.57 0.38 0.23 0.20 0.19 0.12 0.06 0.02 0.01 0.01 0.00 0.00 0.00 0.00 0.01 0.02 0.02 0.03 0.02 0.01 0.01 0.01 0.00 0.01 0.01 0.00 0.00 0.00 0.01 0.02 0.06 0.11 0.15 0.19 0.24 0.30 0.37 0.44 0.48 0.50 0.50 0.53 0.61
0.32 0.32 0.20 0.18 0.16 0.12 0.07 0.04 0.02 0.01 0.00 0.00 0.00 0.00 0.00 0.01 0.01 0.02 0.02 0.01 0.01 0.01 0.01 0.01 0.00 0.00 0.00 0.00 0.00 0.00 0.01 0.03 0.05 0.06 0.07 0.09 0.18 0.27 0.33 0.40 0.45 0.52 0.58 0.67
0.25 0.25 0.15 0.10 0.10 0.07 0.04 0.02 0.01 0.01 0.00 0.00 0.00 0.00 0.00 0.00 0.00 0.01 0.01 0.01 0.01 0.01 0.01 0.00 0.00 0.00 0.00 0.01 0.01 0.01 0.01 0.01 0.02 0.04 0.05 0.08 0.14 0.22 0.26 0.34 0.36 0.40 0.50 0.62
0.24 0.23 0.17 0.08 0.07 0.05 0.03 0.02 0.01 0.01 0.00 0.00 0.00 0.00 0.00 0.00 0.00 0.01 0.01 0.01 0.01 0.01 0.01 0.00 0.00 0.00 0.01 0.03 0.02 0.04 0.06 0.03 0.02 0.03 0.06 0.08 0.11 0.12 0.12 0.15 0.16 0.19 0.25 0.30
0.12 0.13 0.11 0.06 0.05 0.03 0.02 0.02 0.01 0.00 0.00 0.00 0.00 0.00 0.00 0.00 0.00 0.00 0.00 0.00 0.01 0.01 0.01 0.01 0.00 0.00 0.01 0.02 0.05 0.12 0.14 0.11 0.07 0.05 0.05 0.06 0.07 0.09 0.09 0.06 0.05 0.06 0.08 0.13
0.06 0.07 0.08 0.06 0.03 0.02 0.01 0.01 0.01 0.00 0.00 0.00 0.00 0.00 0.00 0.00 0.00 0.00 0.00 0.00 0.01 0.01 0.01 0.01 0.00 0.00 0.00 0.00 0.02 0.03 0.03 0.03 0.05 0.08 0.05 0.04 0.07 0.13 0.18 0.20 0.14 0.08 0.03 0.05
0.04 0.05 0.06 0.05 0.02 0.01 0.01 0.00 0.00 0.00 0.00 0.00 0.00 0.00 0.00 0.00 0.00 0.00 0.00 0.00 0.00 0.01 0.01 0.01 0.00 0.00 0.00 0.00 0.00 0.00 0.01 0.03 0.09 0.10 0.06 0.05 0.10 0.18 0.20 0.19 0.18 0.12 0.05 0.03
0.02 0.02 0.03 0.03 0.02 0.01 0.00 0.00 0.00 0.00 0.00 0.00 0.00 0.00 0.00 0.00 0.00 0.00 0.00 0.00 0.00 0.01 0.01 0.01 0.00 0.00 0.00 0.00 0.01 0.01 0.02 0.02 0.09 0.14 0.08 0.08 0.10 0.10 0.10 0.12 0.10 0.07 0.05 0.05
0.01 0.01 0.01 0.02 0.01 0.00 0.00 0.00 0.00 0.00 0.00 0.00 0.00 0.00 0.00 0.00 0.00 0.00 0.00 0.00 0.00 0.01 0.01 0.01 0.00 0.00 0.00 0.01 0.01 0.03 0.06 0.03 0.03 0.14 0.17 0.14 0.12 0.10 0.11 0.13 0.09 0.05 0.03 0.01
0.00 0.00 0.01 0.01 0.01 0.00 0.00 0.00 0.00 0.00 0.00 0.00 0.00 0.00 0.00 0.00 0.00 0.00 0.00 0.00 0.00 0.00 0.01 0.01 0.00 0.00 0.00 0.01 0.01 0.01 0.02 0.03 0.04 0.13 0.18 0.14 0.11 0.11 0.12 0.10 0.08 0.05 0.03 0.01
0.00 0.00 0.00 0.01 0.01 0.00 0.00 0.00 0.00 0.00 0.00 0.00 0.00 0.00 0.00 0.00 0.00 0.00 0.00 0.00 0.00 0.00 0.00 0.00 0.00 0.00 0.00 0.00 0.01 0.01 0.01 0.02 0.03 0.07 0.08 0.04 0.05 0.08 0.09 0.09 0.06 0.04 0.03 0.02
0.00 0.00 0.00 0.00 0.00 0.00 0.00 0.00 0.00 0.00 0.00 0.00 0.00 0.00 0.00 0.00 0.00 0.00 0.00 0.00 0.00 0.00 0.00 0.00 0.00 0.00 0.00 0.00 0.00 0.01 0.01 0.01 0.02 0.04 0.04 0.05 0.07 0.08 0.07 0.06 0.06 0.04 0.03 0.03
0.00 0.00 0.00 0.00 0.00 0.00 0.00 0.00 0.00 0.00 0.00 0.00 0.00 0.00 0.00 0.00 0.00 0.00 0.00 0.00 0.00 0.00 0.00 0.00 0.00 0.00 0.00 0.00 0.00 0.01 0.02 0.01 0.02 0.03 0.04 0.05 0.05 0.07 0.07 0.06 0.07 0.06 0.05 0.04
0.00 0.00 0.00 0.00 0.00 0.00 0.00 0.00 0.00 0.00 0.00 0.00 0.00 0.00 0.00 0.00 0.00 0.00 0.00 0.00 0.00 0.00 0.00 0.00 0.00 0.00 0.00 0.00 0.01 0.01 0.02 0.01 0.02 0.04 0.05 0.05 0.06 0.07 0.06 0.06 0.07 0.06 0.06 0.06
0.00 0.00 0.00 0.00 0.00 0.00 0.00 0.00 0.00 0.00 0.00 0.00 0.00 0.00 0.00 0.00 0.00 0.00 0.00 0.00 0.00 0.00 0.00 0.00 0.00 0.00 0.00 0.00 0.01 0.01 0.01 0.01 0.02 0.03 0.03 0.04 0.05 0.06 0.06 0.04 0.04 0.04 0.06 0.09
0.00 0.00 0.00 0.00 0.00 0.00 0.00 0.00 0.00 0.00 0.00 0.00 0.00 0.00 0.00 0.00 0.00 0.00 0.00 0.00 0.00 0.00 0.00 0.00 0.00 0.00 0.00 0.00 0.00 0.00 0.00 0.01 0.01 0.01 0.01 0.01 0.02 0.03 0.03 0.04 0.04 0.04 0.04 0.06
0.00 0.00 0.00 0.00 0.00 0.00 0.00 0.00 0.00 0.00 0.00 0.00 0.00 0.00 0.00 0.00 0.00 0.00 0.00 0.00 0.00 0.00 0.00 0.00 0.00 0.00 0.00 0.00 0.00 0.00 0.00 0.01 0.01 0.01 0.01 0.01 0.01 0.01 0.02 0.02 0.03 0.03 0.03 0.03
0.00 0.00 0.00 0.00 0.00 0.00 0.00 0.00 0.00 0.00 0.00 0.00 0.00 0.00 0.00 0.00 0.00 0.00 0.00 0.00 0.00 0.00 0.00 0.00 0.00 0.00 0.00 0.00 0.00 0.00 0.01 0.01 0.00 0.00 0.01 0.01 0.01 0.01 0.01 0.01 0.01 0.01 0.01 0.01
0.01 0.00 0.00 0.00 0.00 0.00 0.00 0.00 0.00 0.00 0.00 0.00 0.00 0.00 0.00 0.00 0.00 0.00 0.00 0.00 0.00 0.00 0.00 0.00 0.00 0.00 0.00 0.00 0.00 0.00 0.00 0.00 0.00 0.00 0.00 0.00 0.01 0.01 0.00 0.00 0.00 0.01 0.01 0.01

GEFSNGP_prec_meanprecacc_066.txt.gz
Total_Precipitation_Accumulation
0.25 0.27 0.39 0.44 0.38 0.38 0.45 0.51 0.66 0.65 0.64 0.52 0.49 0.53 0.56 0.54 0.49 0.45 0.39 0.34 0.35 0.35 0.37 0.36 0.37 0.39 0.40 0.38 0.43 0.50 0.63 0.74 0.78 0.78 0.76 0.71 0.63 0.55 0.54 0.51 0.48 0.54 0.62 0.71
0.16 0.18 0.25 0.32 0.34 0.35 0.35 0.40 0.50 0.57 0.55 0.43 0.39 0.38 0.38 0.36 0.31 0.29 0.29 0.26 0.24 0.24 0.26 0.25 0.24 0.24 0.26 0.32 0.41 0.46 0.53 0.62 0.77 0.82 0.73 0.67 0.58 0.54 0.53 0.50 0.46 0.48 0.53 0.66
0.25 0.21 0.23 0.48 0.51 0.51 0.52 0.46 0.45 0.40 0.32 0.21 0.20 0.23 0.26 0.26 0.26 0.29 0.25 0.20 0.18 0.19 0.20 0.21 0.22 0.25 0.28 0.34 0.43 0.43 0.47 0.58 0.77 0.77 0.65 0.60 0.64 0.64 0.57 0.54 0.54 0.54 0.52 0.54
0.27 0.29 0.57 0.82 0.61 0.58 0.52 0.31 0.17 0.13 0.12 0.12 0.17 0.17 0.15 0.16 0.19 0.22 0.19 0.15 0.13 0.13 0.13 0.14 0.16 0.21 0.24 0.28 0.31 0.33 0.37 0.46 0.61 0.64 0.62 0.64 0.64 0.60 0.51 0.47 0.47 0.49 0.49 0.49
0.29 0.33 0.60 0.64 0.41 0.33 0.33 0.21 0.07 0.06 0.08 0.10 0.12 0.11 0.09 0.09 0.10 0.11 0.11 0.07 0.06 0.06 0.05 0.05 0.05 0.07 0.10 0.13 0.16 0.19 0.25 0.33 0.42 0.45 0.50 0.52 0.51 0.52 0.48 0.43 0.43 0.43 0.45 0.50
0.44 0.54 0.58 0.31 0.16 0.15 0.22 0.26 0.06 0.03 0.04 0.04 0.06 0.09 0.06 0.04 0.05 0.05 0.05 0.04 0.02 0.01 0.01 0.01 0.01 0.01 0.03 0.05 0.08 0.12 0.18 0.25 0.32 0.34 0.38 0.41 0.46 0.49 0.49 0.45 0.41 0.39 0.39 0.40
0.46 0.65 0.54 0.21 0.11 0.11 0.21 0.27 0.08 0.03 0.02 0.02 0.02 0.04 0.02 0.03 0.04 0.04 0.03 0.03 0.01 0.01 0.00 0.00 0.01 0.01 0.02 0.05 0.07 0.08 0.10 0.15 0.22 0.29 0.36 0.44 0.50 0.51 0.52 0.49 0.43 0.41 0.45 0.43
0.38 0.54 0.49 0.20 0.15 0.18 0.17 0.08 0.03 0.02 0.01 0.01 0.01 0.01 0.01 0.02 0.02 0.03 0.03 0.02 0.01 0.01 0.00 0.00 0.01 0.01 0.01 0.02 0.03 0.04 0.06 0.10 0.17 0.25 0.33 0.41 0.50 0.52 0.51 0.52 0.50 0.51 0.51 0.52
0.43 0.57 0.38 0.23 0.20 0.19 0.12 0.06 0.02 0.01 0.01 0.00 0.00 0.00 0.00 0.01 0.02 0.02 0.03 0.02 0.01 0.01 0.01 0.00 0.01 0.01 0.00 0.00 0.00 0.01 0.02 0.06 0.11 0.15 0.19 0.24 0.31 0.39 0.45 0.49 0.50 0.50 0.54 0.61
0.32 0.32 0.20 0.18 0.16 0.12 0.07 0.04 0.02 0.01 0.00 0.00 0.00 0.00 0.00 0.01 0.01 0.02 0.02 0.01 0.01 0.01 0.01 0.01 0.00 0.00 0.00 0.00 0.00 0.00 0.01 0.03 0.05 0.06 0.07 0.10 0.19 0.27 0.34 0.41 0.46 0.53 0.59 0.67
0.25 0.25 0.15 0.10 0.10 0.07 0.04 0.02 0.01 0.01 0.00 0.00 0.00 0.00 0.00 0.00 0.00 0.01 0.01 0.01 0.01 0.01 0.01 0.00 0.00 0.00 0.00 0.01 0.01 0.01 0.01 0.01 0.02 0.04 0.05 0.08 0.14 0.22 0.26 0.34 0.36 0.40 0.50 0.62
0.24 0.23 0.17 0.08 0.07 0.05 0.03 0.02 0.01 0.01 0.00 0.00 0.00 0.00 0.00 0.00 0.00 0.01 0.01 0.01 0.01 0.01 0.01 0.00 0.00 0.00 0.01 0.03 0.02 0.04 0.06 0.03 0.02 0.03 0.06 0.08 0.11 0.12 0.12 0.16 0.16 0.20 0.25 0.30
0.12 0.13 0.11 0.06 0.05 0.03 0.02 0.02 0.01 0.00 0.00 0.00 0.00 0.00 0.00 0.00 0.00 0.00 0.00 0.00 0.01 0.01 0.01 0.01 0.00 0.00 0.01 0.02 0.05 0.12 0.14 0.11 0.07 0.05 0.05 0.06 0.07 0.09 0.09 0.06 0.05 0.07 0.08 0.13
0.06 0.07 0.08 0.06 0.03 0.02 0.01 0.01 0.01 0.00 0.00 0.00 0.00 0.00 0.00 0.00 0.00 0.00 0.00 0.00 0.01 0.01 0.01 0.01 0.00 0.00 0.00 0.00 0.02 0.03 0.03 0.03 0.05 0.08 0.05 0.04 0.07 0.13 0.18 0.20 0.14 0.08 0.04 0.06
0.04 0.05 0.06 0.05 0.02 0.01 0.01 0.00 0.00 0.00 0.00 0.00 0.00 0.00 0.00 0.00 0.00 0.00 0.00 0.00 0.00 0.01 0.01 0.01 0.00 0.00 0.00 0.00 0.00 0.00 0.01 0.03 0.09 0.10 0.06 0.05 0.10 0.18 0.20 0.19 0.18 0.12 0.05 0.03
0.02 0.02 0.03 0.03 0.02 0.01 0.00 0.00 0.00 0.00 0.00 0.00 0.00 0.00 0.00 0.00 0.00 0.00 0.00 0.00 0.00 0.01 0.01 0.01 0.00 0.00 0.00 0.00 0.01 0.01 0.02 0.02 0.09 0.14 0.08 0.08 0.10 0.10 0.10 0.12 0.10 0.07 0.05 0.05
0.01 0.01 0.01 0.02 0.01 0.00 0.00 0.00 0.00 0.00 0.00 0.00 0.00 0.00 0.00 0.00 0.00 0.00 0.00 0.00 0.00 0.01 0.01 0.01 0.00 0.00 0.00 0.01 0.01 0.03 0.06 0.03 0.03 0.14 0.17 0.14 0.12 0.10 0.11 0.13 0.09 0.05 0.03 0.01
0.00 0.00 0.01 0.01 0.01 0.00 0.00 0.00 0.00 0.00 0.00 0.00 0.00 0.00 0.00 0.00 0.00 0.00 0.00 0.00 0.00 0.00 0.01 0.01 0.00 0.00 0.00 0.01 0.01 0.01 0.02 0.03 0.04 0.13 0.18 0.14 0.11 0.11 0.12 0.10 0.08 0.05 0.03 0.01
0.00 0.00 0.00 0.01 0.01 0.00 0.00 0.00 0.00 0.00 0.00 0.00 0.00 0.00 0.00 0.00 0.00 0.00 0.00 0.00 0.00 0.00 0.00 0.00 0.00 0.00 0.00 0.00 0.01 0.01 0.01 0.02 0.03 0.07 0.08 0.04 0.05 0.08 0.09 0.09 0.06 0.04 0.03 0.02
0.00 0.00 0.00 0.00 0.00 0.00 0.00 0.00 0.00 0.00 0.00 0.00 0.00 0.00 0.00 0.00 0.00 0.00 0.00 0.00 0.00 0.00 0.00 0.00 0.00 0.00 0.00 0.00 0.00 0.01 0.01 0.01 0.02 0.04 0.04 0.05 0.07 0.08 0.07 0.06 0.06 0.04 0.03 0.03
0.00 0.00 0.00 0.00 0.00 0.00 0.00 0.00 0.00 0.00 0.00 0.00 0.00 0.00 0.00 0.00 0.00 0.00 0.00 0.00 0.00 0.00 0.00 0.00 0.00 0.00 0.00 0.00 0.00 0.01 0.02 0.01 0.02 0.03 0.04 0.05 0.05 0.07 0.07 0.06 0.07 0.06 0.05 0.04
0.00 0.00 0.00 0.00 0.00 0.00 0.00 0.00 0.00 0.00 0.00 0.00 0.00 0.00 0.00 0.00 0.00 0.00 0.00 0.00 0.00 0.00 0.00 0.00 0.00 0.00 0.00 0.00 0.01 0.01 0.02 0.01 0.02 0.04 0.05 0.06 0.06 0.07 0.06 0.06 0.07 0.06 0.06 0.06
0.00 0.00 0.00 0.00 0.00 0.00 0.00 0.00 0.00 0.00 0.00 0.00 0.00 0.00 0.00 0.00 0.00 0.00 0.00 0.00 0.00 0.00 0.00 0.00 0.00 0.00 0.00 0.00 0.01 0.01 0.01 0.01 0.02 0.03 0.04 0.04 0.05 0.06 0.06 0.04 0.04 0.04 0.06 0.09
0.00 0.00 0.00 0.00 0.00 0.00 0.00 0.00 0.00 0.00 0.00 0.00 0.00 0.00 0.00 0.00 0.00 0.00 0.00 0.00 0.00 0.00 0.00 0.00 0.00 0.00 0.00 0.00 0.00 0.00 0.00 0.01 0.01 0.01 0.01 0.01 0.02 0.03 0.03 0.04 0.04 0.04 0.04 0.06
0.00 0.00 0.00 0.00 0.00 0.00 0.00 0.00 0.00 0.00 0.00 0.00 0.00 0.00 0.00 0.00 0.00 0.00 0.00 0.00 0.00 0.00 0.00 0.00 0.00 0.00 0.00 0.00 0.00 0.00 0.00 0.01 0.01 0.01 0.01 0.01 0.01 0.01 0.02 0.02 0.03 0.03 0.03 0.03
0.00 0.00 0.00 0.00 0.00 0.00 0.00 0.00 0.00 0.00 0.00 0.00 0.00 0.00 0.00 0.00 0.00 0.00 0.00 0.00 0.00 0.00 0.00 0.00 0.00 0.00 0.00 0.00 0.00 0.00 0.01 0.01 0.00 0.00 0.01 0.01 0.01 0.01 0.01 0.01 0.01 0.01 0.01 0.01
0.01 0.00 0.00 0.00 0.00 0.00 0.00 0.00 0.00 0.00 0.00 0.00 0.00 0.00 0.00 0.00 0.00 0.00 0.00 0.00 0.00 0.00 0.00 0.00 0.00 0.00 0.00 0.00 0.00 0.00 0.00 0.00 0.00 0.00 0.00 0.00 0.01 0.01 0.00 0.00 0.00 0.01 0.01 0.01

GEFSNGP_prec_meanprecacc_072.txt.gz
Total_Precipitation_Accumulation
0.25 0.27 0.39 0.44 0.38 0.38 0.45 0.51 0.66 0.65 0.64 0.52 0.49 0.53 0.56 0.54 0.49 0.45 0.39 0.34 0.35 0.35 0.38 0.37 0.38 0.40 0.40 0.38 0.43 0.51 0.64 0.75 0.80 0.81 0.80 0.75 0.67 0.61 0.61 0.57 0.54 0.61 0.68 0.78
0.16 0.18 0.25 0.32 0.34 0.35 0.35 0.40 0.50 0.57 0.55 0.43 0.39 0.38 0.38 0.36 0.31 0.29 0.29 0.26 0.24 0.25 0.26 0.25 0.24 0.24 0.26 0.32 0.41 0.47 0.54 0.63 0.78 0.83 0.75 0.70 0.61 0.57 0.58 0.54 0.50 0.53 0.57 0.72
0.25 0.21 0.23 0.48 0.51 0.51 0.52 0.46 0.45 0.40 0.32 0.21 0.20 0.23 0.26 0.26 0.26 0.29 0.25 0.20 0.18 0.19 0.20 0.21 0.22 0.25 0.28 0.34 0.43 0.44 0.48 0.59 0.78 0.78 0.67 0.62 0.66 0.67 0.61 0.58 0.58 0.59 0.58 0.60
0.27 0.29 0.57 0.82 0.61 0.58 0.52 0.31 0.17 0.13 0.12 0.12 0.17 0.17 0.15 0.16 0.19 0.22 0.19 0.15 0.13 0.13 0.13 0.14 0.17 0.21 0.24 0.28 0.31 0.35 0.40 0.49 0.63 0.65 0.63 0.66 0.66 0.63 0.56 0.52 0.51 0.51 0.52 0.53
0.29 0.33 0.60 0.64 0.41 0.33 0.33 0.21 0.07 0.06 0.08 0.10 0.12 0.11 0.09 0.09 0.10 0.11 0.11 0.07 0.06 0.06 0.05 0.05 0.06 0.07 0.10 0.13 0.16 0.20 0.27 0.35 0.44 0.47 0.51 0.54 0.54 0.54 0.50 0.44 0.44 0.44 0.47 0.52
0.44 0.54 0.58 0.31 0.16 0.15 0.22 0.26 0.06 0.03 0.04 0.04 0.06 0.09 0.06 0.04 0.05 0.05 0.05 0.04 0.03 0.02 0.01 0.01 0.01 0.01 0.03 0.06 0.09 0.13 0.19 0.25 0.33 0.36 0.40 0.42 0.47 0.50 0.49 0.45 0.41 0.39 0.39 0.41
0.46 0.65 0.54 0.21 0.11 0.11 0.21 0.27 0.08 0.03 0.02 0.02 0.02 0.04 0.02 0.03 0.04 0.04 0.03 0.03 0.01 0.01 0.00 0.00 0.01 0.01 0.02 0.05 0.07 0.08 0.11 0.15 0.22 0.30 0.37 0.45 0.50 0.51 0.53 0.49 0.44 0.42 0.46 0.44
0.38 0.54 0.49 0.20 0.15 0.18 0.17 0.08 0.03 0.02 0.01 0.01 0.01 0.01 0.01 0.02 0.02 0.03 0.03 0.02 0.01 0.01 0.00 0.00 0.01 0.01 0.01 0.02 0.03 0.04 0.06 0.11 0.18 0.26 0.33 0.41 0.50 0.52 0.52 0.52 0.51 0.51 0.51 0.53
0.43 0.57 0.38 0.23 0.20 0.19 0.12 0.06 0.02 0.01 0.01 0.00 0.00 0.00 0.00 0.01 0.02 0.02 0.03 0.02 0.01 0.01 0.01 0.00 0.01 0.01 0.00 0.00 0.00 0.01 0.02 0.06 0.11 0.15 0.19 0.24 0.32 0.39 0.45 0.49 0.51 0.51 0.55 0.62
0.32 0.32 0.20 0.18 0.16 0.12 0.07 0.04 0.02 0.01 0.00 0.00 0.00 0.00 0.00 0.01 0.01 0.02 0.02 0.01 0.01 0.01 0.01 0.01 0.00 0.00 0.00 0.00 0.00 0.00 0.01 0.03 0.05 0.06 0.07 0.10 0.19 0.27 0.34 0.41 0.46 0.54 0.59 0.68
0.25 0.25 0.15 0.10 0.10 0.07 0.04 0.02 0.01 0.01 0.00 0.00 0.00 0.00 0.00 0.00 0.00 0.01 0.01 0.01 0.01 0.01 0.01 0.00 0.00 0.00 0.00 0.01 0.01 0.01 0.01 0.01 0.02 0.04 0.05 0.08 0.14 0.22 0.27 0.34 0.36 0.41 0.51 0.62
0.24 0.23 0.17 0.08 0.07 0.05 0.03 0.02 0.01 0.01 0.00 0.00 0.00 0.00 0.00 0.00 0.00 0.01 0.01 0.01 0.01 0.01 0.01 0.00 0.00 0.00 0.01 0.03 0.02 0.04 0.06 0.03 0.02 0.03 0.06 0.08 0.11 0.13 0.12 0.16 0.16 0.20 0.25 0.30
0.12 0.13 0.11 0.06 0.05 0.03 0.02 0.02 0.01 0.00 0.00 0.00 0.00 0.00 0.00 0.00 0.00 0.00 0.00 0.00 0.01 0.01 0.01 0.01 0.00 0.00 0.01 0.02 0.05 0.12 0.14 0.11 0.07 0.05 0.05 0.06 0.07 0.09 0.10 0.07 0.05 0.07 0.08 0.14
0.06 0.07 0.08 0.06 0.03 0.02 0.01 0.01 0.01 0.00 0.00 0.00 0.00 0.00 0.00 0.00 0.00 0.00 0.00 0.00 0.01 0.01 0.01 0.01 0.00 0.00 0.00 0.00 0.02 0.03 0.03 0.03 0.05 0.08 0.05 0.04 0.07 0.13 0.18 0.20 0.15 0.08 0.04 0.06
0.04 0.05 0.06 0.05 0.02 0.01 0.01 0.00 0.00 0.00 0.00 0.00 0.00 0.00 0.00 0.00 0.00 0.00 0.00 0.00 0.00 0.01 0.01 0.01 0.00 0.00 0.00 0.00 0.00 0.00 0.01 0.03 0.09 0.10 0.06 0.05 0.10 0.18 0.20 0.19 0.18 0.12 0.05 0.03
0.02 0.02 0.03 0.03 0.02 0.01 0.00 0.00 0.00 0.00 0.00 0.00 0.00 0.00 0.00 0.00 0.00 0.00 0.00 0.00 0.00 0.01 0.01 0.01 0.00 0.00 0.00 0.00 0.01 0.01 0.02 0.02 0.09 0.14 0.08 0.08 0.10 0.10 0.10 0.12 0.10 0.07 0.05 0.05
0.01 0.01 0.01 0.02 0.01 0.00 0.00 0.00 0.00 0.00 0.00 0.00 0.00 0.00 0.00 0.00 0.00 0.00 0.00 0.00 0.00 0.01 0.01 0.01 0.00 0.00 0.00 0.01 0.01 0.03 0.06 0.03 0.03 0.14 0.17 0.14 0.12 0.10 0.11 0.13 0.09 0.05 0.03 0.01
0.00 0.00 0.01 0.01 0.01 0.00 0.00 0.00 0.00 0.00 0.00 0.00 0.00 0.00 0.00 0.00 0.00 0.00 0.00 0.00 0.00 0.00 0.01 0.01 0.00 0.00 0.00 0.01 0.01 0.01 0.02 0.03 0.04 0.13 0.18 0.14 0.11 0.11 0.12 0.10 0.08 0.05 0.03 0.01
0.00 0.00 0.00 0.01 0.01 0.00 0.00 0.00 0.00 0.00 0.00 0.00 0.00 0.00 0.00 0.00 0.00 0.00 0.00 0.00 0.00 0.00 0.00 0.00 0.00 0.00 0.00 0.00 0.01 0.01 0.01 0.02 0.03 0.07 0.08 0.04 0.05 0.08 0.09 0.09 0.06 0.04 0.03 0.02
0.00 0.00 0.00 0.00 0.00 0.00 0.00 0.00 0.00 0.00 0.00 0.00 0.00 0.00 0.00 0.00 0.00 0.00 0.00 0.00 0.00 0.00 0.00 0.00 0.00 0.00 0.00 0.00 0.00 0.01 0.01 0.01 0.02 0.04 0.04 0.05 0.08 0.09 0.07 0.06 0.06 0.04 0.03 0.03
0.00 0.00 0.00 0.00 0.00 0.00 0.00 0.00 0.00 0.00 0.00 0.00 0.00 0.00 0.00 0.00 0.00 0.00 0.00 0.00 0.00 0.00 0.00 0.00 0.00 0.00 0.00 0.00 0.00 0.01 0.02 0.01 0.02 0.03 0.04 0.05 0.05 0.07 0.07 0.06 0.07 0.06 0.05 0.04
0.00 0.00 0.00 0.00 0.00 0.00 0.00 0.00 0.00 0.00 0.00 0.00 0.00 0.00 0.00 0.00 0.00 0.00 0.00 0.00 0.00 0.00 0.00 0.00 0.00 0.00 0.00 0.00 0.01 0.01 0.02 0.01 0.02 0.04 0.05 0.06 0.06 0.07 0.06 0.06 0.07 0.06 0.06 0.06
0.00 0.00 0.00 0.00 0.00 0.00 0.00 0.00 0.00 0.00 0.00 0.00 0.00 0.00 0.00 0.00 0.00 0.00 0.00 0.00 0.00 0.00 0.00 0.00 0.00 0.00 0.00 0.00 0.01 0.01 0.01 0.01 0.02 0.03 0.04 0.04 0.05 0.06 0.06 0.04 0.04 0.04 0.06 0.09
0.00 0.00 0.00 0.00 0.00 0.00 0.00 0.00 0.00 0.00 0.00 0.00 0.00 0.00 0.00 0.00 0.00 0.00 0.00 0.00 0.00 0.00 0.00 0.00 0.00 0.00 0.00 0.00 0.00 0.00 0.00 0.01 0.01 0.01 0.01 0.01 0.02 0.03 0.03 0.04 0.04 0.04 0.04 0.06
0.00 0.00 0.00 0.00 0.00 0.00 0.00 0.00 0.00 0.00 0.00 0.00 0.00 0.00 0.00 0.00 0.00 0.00 0.00 0.00 0.00 0.00 0.00 0.00 0.00 0.00 0.00 0.00 0.00 0.00 0.00 0.01 0.01 0.01 0.01 0.01 0.01 0.01 0.02 0.02 0.03 0.03 0.03 0.03
0.00 0.00 0.00 0.00 0.00 0.00 0.00 0.00 0.00 0.00 0.00 0.00 0.00 0.00 0.00 0.00 0.00 0.00 0.00 0.00 0.00 0.00 0.00 0.00 0.00 0.00 0.00 0.00 0.00 0.00 0.01 0.01 0.00 0.00 0.01 0.01 0.01 0.01 0.01 0.01 0.01 0.01 0.01 0.01
0.01 0.00 0.00 0.00 0.00 0.00 0.00 0.00 0.00 0.00 0.00 0.00 0.00 0.00 0.00 0.00 0.00 0.00 0.00 0.00 0.00 0.00 0.00 0.00 0.00 0.00 0.00 0.00 0.00 0.00 0.00 0.00 0.00 0.00 0.00 0.00 0.01 0.01 0.00 0.00 0.00 0.01 0.01 0.01